N1VL Weather Reports


Display with metric or nautical units.
time (UTC)temp
F
wind
direction
speed
MPH
gust
MPH
rain 1hr
in
rain 24hr
in
rain mn
in
humidity
%
barometer
mb
20260901224503 79 88 11.0 18.0 0.00 0.05 0.00 41 1016.6
20260901223603 79 80 10.0 18.0 0.00 0.05 0.00 44 1016.8
20260901222703 79 86 10.0 19.0 0.00 0.05 0.00 43 1017.0
20260901221803 80 84 11.0 19.0 0.00 0.05 0.00 42 1017.2
20260901220924 81 82 9.0 19.0 0.00 0.05 0.00 42 1017.4
20260901220003 80 77 10.0 16.0 0.00 0.05 0.00 44 1017.5
20260901215403 79 80 9.0 16.0 0.00 0.05 0.00 45 1017.7
20260901214503 78 82 10.0 19.0 0.00 0.05 0.00 46 1017.8
20260901213603 78 78 12.0 19.0 0.00 0.05 0.00 44 1018.0
20260901212703 79 91 9.0 20.0 0.00 0.05 0.00 43 1018.2
20260901211803 78 88 11.0 25.0 0.00 0.05 0.00 43 1018.3
20260901210903 77 93 13.0 26.0 0.00 0.05 0.00 44 1018.5
20260901210024 78 91 9.0 21.0 0.00 0.05 0.00 44 1018.7
20260901205403 79 92 9.0 16.0 0.00 0.05 0.00 42 1018.5
20260901204524 79 90 9.0 15.0 0.00 0.05 0.00 43 1018.5
20260901203603 80 84 10.0 18.0 0.00 0.05 0.00 43 1018.5
20260901202703 78 82 10.0 16.0 0.00 0.05 0.00 45 1018.8
20260901201803 79 83 8.0 15.0 0.00 0.05 0.00 45 1019.0
20260901200903 79 95 8.0 16.0 0.00 0.05 0.00 45 1019.3
20260901200003 78 92 9.0 16.0 0.00 0.05 0.00 45 1019.5
20260901195424 78 88 9.0 15.0 0.00 0.05 0.00 46 1019.5
20260901194503 76 94 9.0 19.0 0.00 0.05 0.00 46 1019.7
20260901193624 77 91 9.0 21.0 0.00 0.05 0.00 45 1019.9
20260901192703 77 95 9.0 16.0 0.00 0.05 0.00 46 1019.8
20260901191803 78 90 8.0 16.0 0.00 0.05 0.00 45 1020.1
20260901190924 78 84 10.0 18.0 0.00 0.05 0.00 46 1020.1
20260901190003 77 88 7.0 14.0 0.00 0.05 0.00 45 1020.2
20260901185403 76 90 6.0 11.0 0.00 0.05 0.00 46 1020.2
20260901184503 74 79 5.0 9.0 0.00 0.05 0.00 47 1020.4
20260901183603 73 88 6.0 9.0 0.00 0.05 0.00 47 1020.7
20260901182703 72 86 5.0 9.0 0.00 0.05 0.00 47 1020.8
20260901181803 72 99 4.0 8.0 0.00 0.05 0.00 47 1021.0
20260901180903 71 96 5.0 9.0 0.00 0.05 0.00 47 1021.2
20260901180003 71 126 5.0 8.0 0.00 0.05 0.00 46 1021.3
20260901175403 71 132 5.0 9.0 0.00 0.05 0.00 46 1021.4
20260901174501 71 127 3.0 9.0 0.00 0.05 0.00 46 1021.4
20260901173622 71 102 4.0 9.0 0.00 0.05 0.00 45 1021.4
20260901172722 71 125 6.0 10.0 0.00 0.05 0.00 45 1021.3
20260901171801 70 109 3.0 7.0 0.00 0.05 0.00 43 1021.4
20260901170901 69 90 5.0 10.0 0.00 0.05 0.00 43 1021.5
20260901170001 69 90 6.0 10.0 0.00 0.05 0.00 41 1021.4
20260901165401 68 103 5.0 9.0 0.00 0.05 0.00 40 1021.5
20260901164501 66 98 4.0 11.0 0.00 0.05 0.00 40 1021.5
20260901163601 66 93 6.0 11.0 0.00 0.05 0.00 41 1021.4
20260901162701 66 88 6.0 11.0 0.00 0.05 0.00 41 1021.5
20260901161801 66 103 6.0 11.0 0.00 0.05 0.00 42 1021.4
20260901160901 66 102 7.0 11.0 0.00 0.05 0.00 41 1021.4
20260901160001 66 94 7.0 11.0 0.00 0.05 0.00 39 1021.4
20260901155422 66 86 6.0 11.0 0.00 0.05 0.00 37 1021.3
20260901154522 66 62 6.0 10.0 0.00 0.05 0.00 34 1021.4
20260901153601 65 76 5.0 10.0 0.00 0.05 0.00 32 1021.4
20260901152701 64 60 6.0 8.0 0.00 0.05 0.00 31 1021.4
20260901151801 63 64 4.0 8.0 0.00 0.05 0.00 30 1021.6
20260901150901 63 60 5.0 8.0 0.00 0.05 0.00 28 1021.5
20260901150022 63 71 5.0 8.0 0.00 0.05 0.00 26 1021.5
20260901145401 63 55 5.0 8.0 0.00 0.05 0.00 25 1021.5
20260901144501 61 94 2.0 5.0 0.00 0.05 0.00 24 1021.4
20260901143601 60 58 2.0 7.0 0.00 0.05 0.00 25 1021.3
20260901142701 59 57 5.0 7.0 0.00 0.05 0.00 25 1021.3
20260901141822 59 60 5.0 7.0 0.00 0.05 0.00 25 1021.3
20260901140901 59 76 4.0 8.0 0.00 0.05 0.00 25 1021.3
20260901140022 59 75 5.0 8.0 0.00 0.05 0.00 25 1021.1
20260901135422 58 77 5.0 8.0 0.00 0.05 0.00 25 1021.1
20260901134522 58 69 4.0 9.0 0.00 0.05 0.00 25 1021.0
20260901133601 58 85 4.0 9.0 0.00 0.05 0.00 25 1020.9
20260901132701 58 117 3.0 5.0 0.00 0.05 0.00 25 1020.8
20260901131801 58 131 2.0 5.0 0.00 0.05 0.00 25 1020.8
20260901130922 58 131 2.0 5.0 0.00 0.05 0.00 25 1020.8
20260901130001 58 92 2.0 6.0 0.00 0.05 0.00 25 1020.7
20260901125401 58 79 2.0 6.0 0.00 0.05 0.00 25 1020.7
20260901124522 58 79 4.0 7.0 0.00 0.05 0.00 25 1020.7
20260901123601 58 68 5.0 8.0 0.00 0.05 0.00 25 1020.7
20260901122701 58 73 3.0 6.0 0.00 0.05 0.00 25 1020.7
20260901121802 57 85 3.0 8.0 0.00 0.05 0.00 26 1020.7
20260901120902 57 86 4.0 8.0 0.00 0.05 0.00 25 1020.7
20260901120023 57 83 5.0 8.0 0.00 0.05 0.00 26 1020.7
20260901115402 56 74 5.0 8.0 0.00 0.05 0.00 26 1020.7
20260901114502 56 89 3.0 6.0 0.00 0.05 0.00 26 1020.7
20260901113602 57 96 3.0 4.0 0.00 0.05 0.00 26 1020.6
20260901112723 57 96 4.0 5.0 0.00 0.05 0.00 26 1020.4
20260901111823 57 97 2.0 4.0 0.00 0.05 0.00 26 1020.4
20260901110902 57 97 1.0 5.0 0.00 0.05 0.00 26 1020.5
20260901110002 57 97 2.0 5.0 0.00 0.05 0.00 26 1020.6
20260901105402 57 109 3.0 6.0 0.00 0.05 0.00 26 1020.6
20260901104502 57 118 2.0 5.0 0.00 0.05 0.00 26 1020.6
20260901103602 57 83 2.0 5.0 0.00 0.05 0.00 26 1020.8
20260901102702 57 82 3.0 6.0 0.00 0.05 0.00 26 1020.7
20260901101802 57 101 3.0 5.0 0.00 0.05 0.00 26 1020.8
20260901100902 57 120 3.0 5.0 0.00 0.05 0.00 26 1020.9
20260901100002 57 124 2.0 5.0 0.00 0.05 0.00 27 1020.9
20260901095402 57 126 0.0 4.0 0.00 0.05 0.00 27 1020.9
20260901094523 57 126 1.0 4.0 0.00 0.05 0.00 27 1020.8
20260901093623 57 110 3.0 5.0 0.00 0.05 0.00 27 1020.8
20260901092702 58 85 3.0 5.0 0.00 0.05 0.00 27 1020.7
20260901091802 58 80 3.0 7.0 0.00 0.05 0.00 27 1020.7
20260901090923 58 80 3.0 7.0 0.00 0.05 0.00 27 1020.8
20260901090002 58 73 4.0 7.0 0.00 0.05 0.00 27 1020.8
20260901085402 58 106 2.0 6.0 0.00 0.05 0.00 28 1020.7
20260901084523 58 143 2.0 5.0 0.00 0.05 0.00 28 1020.7
20260901083602 58 143 0.0 4.0 0.00 0.05 0.00 28 1021.0
20260901082702 59 130 3.0 5.0 0.00 0.05 0.00 28 1020.9
20260901081802 59 126 2.0 5.0 0.00 0.05 0.00 28 1020.9
20260901080902 59 123 2.0 5.0 0.00 0.05 0.00 29 1021.0
20260901080002 59 117 2.0 5.0 0.00 0.05 0.00 29 1021.1
20260901075402 60 100 3.0 5.0 0.00 0.05 0.00 29 1021.0
20260901074502 60 83 2.0 4.0 0.00 0.05 0.00 30 1021.1
20260901073602 60 83 2.0 5.0 0.00 0.05 0.00 30 1021.1
20260901072702 60 107 2.0 5.0 0.00 0.05 0.00 31 1021.1
20260901071802 60 142 0.0 2.0 0.00 0.05 0.00 31 1021.2
20260901070902 60 142 0.0 4.0 0.00 0.05 0.00 32 1021.1
20260901070023 61 142 2.0 4.0 0.00 0.05 0.00 32 1021.0
20260901065402 61 149 3.0 7.0 0.00 0.05 0.00 32 1021.0
20260901064502 62 164 2.0 6.0 0.00 0.05 0.00 32 1021.0
20260901063602 62 166 3.0 7.0 0.00 0.05 0.00 31 1021.1
20260901062703 62 141 2.0 5.0 0.00 0.05 0.00 31 1021.0
20260901061803 62 141 5.0 9.0 0.00 0.05 0.00 31 1021.2
20260901060903 62 130 6.0 8.0 0.00 0.05 0.00 30 1021.1
20260901060003 62 124 3.0 7.0 0.00 0.05 0.00 29 1021.2
20260901055403 62 126 3.0 6.0 0.00 0.05 0.05 29 1021.1
20260901054503 62 173 2.0 6.0 0.00 0.05 0.05 29 1021.3
20260901053624 62 167 4.0 6.0 0.00 0.05 0.05 29 1021.3
20260901052703 63 91 2.0 5.0 0.00 0.05 0.05 30 1021.4
20260901051803 62 92 4.0 10.0 0.00 0.05 0.05 29 1021.4
20260901050924 62 90 6.0 11.0 0.00 0.05 0.05 29 1021.5
20260901050024 62 84 5.0 11.0 0.00 0.05 0.05 29 1021.5
20260901045403 62 83 6.0 11.0 0.00 0.05 0.05 29 1021.5
20260901044524 62 87 7.0 11.0 0.00 0.05 0.05 29 1021.8
20260901043603 62 93 6.0 12.0 0.00 0.05 0.05 28 1021.9
20260901042703 62 91 5.0 10.0 0.00 0.05 0.05 29 1022.0
20260901041803 62 83 5.0 10.0 0.00 0.05 0.05 29 1022.0
20260901040903 61 82 5.0 9.0 0.00 0.05 0.05 29 1022.1
20260901040003 61 67 5.0 8.0 0.00 0.05 0.05 29 1022.2
20260901035403 61 72 5.0 9.0 0.00 0.05 0.05 29 1022.2
20260901034503 62 121 3.0 6.0 0.00 0.05 0.05 30 1022.2
20260901033603 62 164 4.0 11.0 0.00 0.05 0.05 29 1022.1
20260901032703 62 178 6.0 14.0 0.00 0.05 0.05 29 1022.0
20260901031803 62 175 7.0 14.0 0.00 0.05 0.05 28 1021.9
20260901030903 62 168 7.0 14.0 0.00 0.05 0.05 26 1021.8
20260901030003 62 150 6.0 12.0 0.00 0.05 0.05 26 1021.7
20260901025403 62 139 4.0 8.0 0.00 0.05 0.05 26 1021.6
20260901024503 62 114 3.0 7.0 0.00 0.05 0.05 26 1021.5
20260901023603 62 122 3.0 7.0 0.00 0.05 0.05 26 1021.4
20260901022703 62 120 3.0 7.0 0.00 0.05 0.05 26 1021.5
20260901021824 62 102 4.0 7.0 0.00 0.05 0.05 26 1021.4
20260901020903 62 71 6.0 11.0 0.00 0.05 0.05 26 1021.6
20260901020003 63 60 5.0 11.0 0.00 0.05 0.05 26 1021.6
20260901015424 63 64 5.0 11.0 0.00 0.05 0.05 26 1021.8
20260901014503 62 79 6.0 10.0 0.00 0.05 0.05 27 1022.2
20260901013603 62 93 6.0 10.0 0.01 0.05 0.05 27 1022.3
20260901012703 62 95 7.0 14.0 0.02 0.05 0.05 28 1022.3
20260901011803 62 90 7.0 13.0 0.03 0.05 0.05 28 1022.5
20260901010903 62 75 6.0 13.0 0.03 0.05 0.05 28 1022.8
20260901010003 62 78 3.0 7.0 0.04 0.05 0.05 29 1023.0
20260901005403 63 95 5.0 10.0 0.04 0.05 0.05 31 1023.1
20260901004503 63 147 6.0 11.0 0.04 0.05 0.05 33 1023.2
20260901003603 63 160 5.0 12.0 0.04 0.04 0.04 35 1023.2
20260901002703 64 165 3.0 7.0 0.03 0.03 0.03 38 1023.4
20260901001803 65 181 3.0 9.0 0.02 0.02 0.02 42 1023.4
20260901000903 66 339 4.0 7.0 0.02 0.02 0.02 44 1023.4
20260901000024 66 152 3.0 11.0 0.01 0.01 0.01 46 1023.4
20260831235403 66 136 4.0 11.0 0.01 0.01 0.01 49 1023.3
20260831234524 68 140 9.0 16.0 0.01 0.01 0.01 51 1023.2
20260831233603 68 168 9.0 19.0 0.00 0.00 0.00 52 1022.6
20260831232703 69 164 9.0 19.0 0.00 0.00 0.00 52 1022.1
20260831231803 69 155 14.0 29.0 0.00 0.00 0.00 51 1021.9
20260831230924 71 150 16.0 30.0 0.00 0.00 0.00 49 1021.6
20260831230003 72 158 17.0 30.0 0.00 0.00 0.00 48 1020.7
20260831225403 74 135 18.0 30.0 0.00 0.00 0.00 45 1020.2